sat.trackr.live / text

‹ back to catalog

BANDWAGON-4 OBJECT M

NORAD 66304 · 2025-248M

PAYLOAD ACTIVE UNKNOWN

§ Identity

Operator
Country
TBD
Launch date
2025-11-02
Launch site
AFETR
Launch vehicle
Mass (kg)
RCS (m²)

External: N2YO · Heavens-Above · Gunter

§ Orbital elements

Epoch: 2026-05-24T23:16:09.971040Z

Period
94.31 min
Inclination
45.4195°
Eccentricity
0.0012860
Mean motion
15.26893031 rev/d
Perigee alt
476.3 km
Apogee alt
493.9 km
Semi-major
6,863.2 km
B*
5.2958e-4
RAAN
239.2696°
Arg perigee
288.0574°
Mean anomaly
71.8914°
Rev number
2,978

§ Raw data

BANDWAGON-4 OBJECT M1 66304U 25248M   26144.96955985  .00014003  00000+0  52958-3 0  99922 66304  45.4195 239.2696 0012860 288.0574  71.8914 15.26893031 29781

JSON: /api/v1/satellites/66304 · /tle

For live sub-satellite position, see the globe view (requires WebGL).

§ Visibility from observer

Set your observer location to see the next 7 days of passes ≥ 10°. The values pass through the URL so the page stays shareable.

No JS? Fill the form by hand. The geolocation button needs JavaScript.